Regional Weather Roundup
Issued by NWS Northern Indiana

Home | Current Version | Previous Version | Graphics & Text | Print | Product List | Glossary On
Versions: 1 2 3 4 5 6 7 8 9 10 11 12 13 14 15 16 17 18 19 20 21 22 23 24 25 26 27 28 29 30 31 32 33 34 35 36 37 38 39 40 41 42 43 44 45 46 47 48 49 50
110
ASUS43 KIWX 271100
RWRIWX

KIWX WEATHER ROUNDUP
NATIONAL WEATHER SERVICE NORTHERN INDIANA
700 AM EDT WED JUL 27 2016

NOTE: "FAIR" INDICATES FEW OR NO CLOUDS BELOW 12,000 FEET WITH NO
SIGNIFICANT WEATHER AND/OR OBSTRUCTIONS TO VISIBILITY.

* THESE STATIONS ARE NOT UNDER NWS QUALITY CONTROL. THEY ALSO MAY NOT
  REPORT WEATHER SUCH AS PRECIPITATION OR FOG.

INZ001>027-271200-
NORTHERN INDIANA

CITY           SKY/WX    TMP DP  RH WIND       PRES   REMARKS
GARY*          PTCLDY    66  66 100 CALM      30.04R
KNOX*          MOCLDY    61  61 100 CALM      30.04R
SOUTH BEND     PTCLDY    64  62  93 CALM      30.04S
ELKHART*       PTCLDY    63  63 100 CALM      30.05
GOSHEN         PTCLDY    62  59  90 CALM      30.04R
MONTICELLO*    CLEAR     65  61  87 CALM      30.03R
ANGOLA*        CLOUDY    63  52  67 CALM      30.04R VSB 1/4
FORT WAYNE     PTCLDY    64  61  90 CALM      30.04R

$$
INZ028>050-271200-
CENTRAL INDIANA

CITY           SKY/WX    TMP DP  RH WIND       PRES   REMARKS
LAFAYETTE      PTCLDY    63  63 100 CALM      30.03R FOG
KOKOMO*        CLEAR     61  55  82 CALM      30.05R
MUNCIE*        MOCLDY    66  63  90 CALM      30.04R
INDIANAPOLIS   MOCLDY    70  66  87 N5        30.04R

$$
MIZ043>046-050>051-056>058-064>065-071>073-077>080-271200-
SOUTHWEST LOWER MICHIGAN

CITY           SKY/WX    TMP DP  RH WIND       PRES   REMARKS
BATTLE CREEK   CLEAR     63  63 100 S3        30.04S
BENTON HARBOR  CLEAR     63  60  90 CALM      30.02S FOG
COLDWATER*     CLEAR     62  62 100 CALM      30.05R
HOLLAND        CLEAR     62  61  96 CALM      30.03R
GRAND RAPIDS   PTCLDY    63  60  90 S5        30.03R
KALAMAZOO      CLEAR     62  59  90 CALM      30.04R
STURGIS*       CLEAR     62  62  99 CALM      30.04R FOG
THREE RIVERS*  FAIR      63  62  94 CALM      30.04S

$$
OHZ001>008-015>018-024>025-271200-
NORTHWEST OHIO

CITY           SKY/WX    TMP DP  RH WIND       PRES   REMARKS
DEFIANCE       PTCLDY    66  62  87 CALM      30.03R
FINDLAY        CLEAR     66  60  81 CALM      30.02R
TOLEDO EXPRESS CLEAR     63  63 100 CALM      30.03R
TOLEDO METCALF CLEAR     66  62  87 CALM      30.04R
LIMA           PTCLDY    66  62  87 CALM      30.03R

$$
AND FOR LAKE MICHIGAN COASTAL AND OPEN LAKE BUOY OBSERVATIONS

STATION/POSITION TEMP    WIND        PRES    VSBY  WAVE
                 AIR SEA DIR/SP/G                  HT/PER
                 (F)     (DEG/KT/KT) (MB)    (MI)  (FT/S)
CALUMET HARBOR    72     220/  2/  3 1015.8R
MICHIGAN CITY     71     170/  4/  4   N/A
BURNS HARBOR      71     190/  6/  8 1016.9R
SAINT JOSEPH      68     140/  1/  4 1016.6S
SOUTH LAKE BUOY   75 75  220/  6/  8 1015.2          0
4 MI NW BRIDGMAN  74 78  190/  4/  4 1016.2R         0
MICHIGAN CITY     74 76  210/  4/  4   N/A           0

$$
&&




USA.gov is the U.S. government's official web portal to all federal, state and local government web resources and services.